Park Rapids, MN

3:05 PM CDT on May 23, 2017 (GMT -0500)
Park Rapids Municipal

Weather History for KPKD - October, 2010

Change the Weather History Date:

Saturday, October 23, 2010

  Actual Average Record
Temperature  
Mean Temperature 42 °F -  
Max Temperature 48 °F 53 °F 79 °F (1963)
Min Temperature 35 °F 29 °F 9 °F (1981)
Degree Days  
Heating Degree Days 24    
Moisture  
Dew Point 37 °F    
Average Humidity 72    
Maximum Humidity 85    
Minimum Humidity 66    
Precipitation  
Precipitation 0.00 in - - ()
Sea Level Pressure  
Sea Level Pressure 29.88 in    
Wind  
Wind Speed 6 mph (ENE)    
Max Wind Speed 14 mph    
Max Gust Speed 22 mph    
Visibility 10 miles    
Events      
Averages and records for this station are not official NWS values.
T = Trace of Precipitation, MM = Missing Value Source: NWS Daily Summary

Daily Weather History Graph

Daily Weather History Graph

Search for Another Location

Airport or City:

Trip Planner

Search our weather history database for the weather conditions in past years. The results will help you decide how hot, cold, wet, or windy it might be!

Date:

Astronomy

Oct. 23, 2010 Rise Set
Actual Time 7:49 AM CDT 6:18 PM CDT
Civil Twilight 7:18 AM CDT 6:49 PM CDT
Nautical Twilight 6:43 AM CDT 7:25 PM CDT
Astronomical Twilight 6:07 AM CDT 8:00 PM CDT
Moon 6:13 PM CDT 8:38 AM CDT
Length of Visible Light 11h 31m
Length of Day
10h 29m
Full, 100% of the Moon is Illuminated
Oct 23
Full
Oct 30
Last Quarter
Nov 5
New
Nov 13
First Quarter
Nov 21
Full

Hourly Weather History & Observations

Time (CDT) Temp. Windchill Dew Point Humidity Pressure Visibility Wind Dir Wind Speed Gust Speed Precip Events Conditions
12:53 AM 35.1 °F - 30.9 °F 85% 29.88 in 10.0 mi Calm Calm - N/A   Clear
1:53 AM 44.1 °F 42.5 °F 34.0 °F 68% 29.88 in 10.0 mi NNE 3.5 mph - N/A   Clear
2:53 AM 44.6 °F 41.4 °F 33.8 °F 66% 29.87 in 10.0 mi NE 5.8 mph - N/A   Clear
3:53 AM 44.1 °F 40.1 °F 35.1 °F 71% 29.87 in 10.0 mi NE 6.9 mph - N/A   Clear
4:53 AM 44.1 °F 39.5 °F 35.1 °F 71% 29.86 in 10.0 mi NE 8.1 mph - N/A   Clear
5:53 AM 43.0 °F 41.3 °F 35.1 °F 74% 29.87 in 10.0 mi ENE 3.5 mph - N/A   Clear
6:53 AM 43.0 °F 38.2 °F 35.1 °F 74% 29.87 in 10.0 mi NE 8.1 mph - N/A   Clear
7:53 AM 43.0 °F 38.8 °F 35.1 °F 74% 29.88 in 10.0 mi ENE 6.9 mph - N/A   Clear
8:53 AM 44.1 °F 42.5 °F 35.1 °F 71% 29.91 in 10.0 mi ENE 3.5 mph - N/A   Clear
9:53 AM 45.0 °F 40.6 °F 36.0 °F 71% 29.91 in 10.0 mi ENE 8.1 mph - N/A   Clear
10:53 AM 46.0 °F 41.0 °F 36.0 °F 68% 29.90 in 10.0 mi ENE 10.4 mph 17.3 mph N/A   Clear
11:53 AM 46.9 °F - 36.0 °F 66% 29.91 in 10.0 mi East 8.1 mph - N/A   Clear
12:53 PM 46.0 °F 39.9 °F 36.0 °F 68% 29.90 in 10.0 mi ENE 13.8 mph 21.9 mph N/A   Clear
1:53 PM 46.9 °F - 37.0 °F 68% 29.88 in 10.0 mi ENE 9.2 mph - N/A   Clear
2:42 PM 46.4 °F 41.5 °F 37.4 °F 71% 29.85 in 10.0 mi East 10.4 mph 17.3 mph N/A   Mostly Cloudy
2:53 PM 46.9 °F - 37.9 °F 71% 29.88 in 10.0 mi East 10.4 mph - N/A   Overcast
3:53 PM 48.0 °F - 39.0 °F 71% 29.89 in 10.0 mi East 10.4 mph - N/A   Overcast
4:53 PM 48.0 °F - 39.0 °F 71% 29.89 in 10.0 mi East 8.1 mph - N/A   Overcast
5:53 PM 46.9 °F - 39.0 °F 74% 29.89 in 10.0 mi ENE 9.2 mph - N/A   Overcast
6:53 PM 46.9 °F - 39.0 °F 74% 29.88 in 10.0 mi ENE 8.1 mph - N/A   Overcast
7:53 PM 46.9 °F - 39.0 °F 74% 29.89 in 10.0 mi East 8.1 mph - N/A   Overcast
8:53 PM 46.9 °F - 37.9 °F 71% 29.89 in 10.0 mi East 9.2 mph - N/A   Overcast
9:53 PM 46.0 °F 40.2 °F 37.9 °F 73% 29.88 in 10.0 mi East 12.7 mph - N/A   Overcast
10:53 PM 46.0 °F 41.4 °F 37.9 °F 73% 29.88 in 10.0 mi East 9.2 mph - N/A   Overcast
11:53 PM 45.0 °F 39.7 °F 39.0 °F 80% 29.85 in 10.0 mi ENE 10.4 mph - N/A   Overcast